Location: New Plymouth
(39.0670°S, 174.0830°E)
Time: 01:32:56
(UTC+13:00)

ISS - Pass Details

Date: 29 January 2019
Orbit: 403 x 411 km, 51.6° (Epoch: 20 February)

Event Time Altitude Azimuth Distance (km) Brightness Sun altitude
Exits shadow 04:42:01 16° 32° (NNE) 1,182 -1.6 -18.2°
Maximum altitude 04:42:50 17° 50° (NE) 1,132 -1.5 -18.1°
Drops below altitude 10° 04:45:01 10° 92° (E) 1,473 -0.3 -17.8°
Sets 04:47:41 0° 113° (ESE) 2,358 1.4 -17.4°
